Hourly Weather Gogolowa

Today, 17 May, Monday

Time Temperature Precipitation Wind Pressure Humidity
00:00 +9°C° 0 mm 2 mps 732 mmHg 86%
01:00 +9°C° 0 mm 2 mps 731 mmHg 87%
02:00 +9°C° 0.3 mm 2 mps 731 mmHg 88%
03:00 +10°C° 0.3 mm 1 mps 731 mmHg 89%
04:00 +11°C° 0.3 mm 1 mps 731 mmHg 90%
05:00 +11°C° 0.3 mm 1 mps 731 mmHg 90%
06:00 +10°C° 0.3 mm 2 mps 731 mmHg 90%
07:00 +12°C° 0.3 mm 2 mps 731 mmHg 91%
08:00 +12°C° 0.7 mm 2 mps 731 mmHg 91%
09:00 +12°C° 0.7 mm 2 mps 731 mmHg 91%
10:00 +12°C° 0.7 mm 2 mps 731 mmHg 91%
11:00 +12°C° 0.3 mm 1 mps 731 mmHg 90%
12:00 +13°C° 0.3 mm 1 mps 731 mmHg 89%
13:00 +13°C° 0.3 mm 1 mps 731 mmHg 88%
14:00 +13°C° 0.4 mm 1 mps 731 mmHg 90%
15:00 +12°C° 0.4 mm 1 mps 731 mmHg 92%
16:00 +12°C° 0.4 mm 2 mps 731 mmHg 93%
17:00 +12°C° 0.6 mm 2 mps 731 mmHg 94%
18:00 +12°C° 0.6 mm 2 mps 731 mmHg 95%
19:00 +10°C° 0.6 mm 2 mps 731 mmHg 96%
20:00 +10°C° 0.6 mm 2 mps 731 mmHg 96%
21:00 +10°C° 0.6 mm 2 mps 732 mmHg 96%
22:00 +10°C° 0.6 mm 2 mps 732 mmHg 96%
23:00 +10°C° 0.4 mm 3 mps 732 mmHg 95%

Tomorrow, 18 May, Tuesday

Time Temperature Precipitation Wind Pressure Humidity
00:00 +10°C° 0.4 mm 3 mps 732 mmHg 94%
01:00 +10°C° 0.4 mm 3 mps 733 mmHg 94%
02:00 +9°C° 0.4 mm 3 mps 733 mmHg 93%
03:00 +9°C° 0.4 mm 3 mps 733 mmHg 93%
04:00 +9°C° 0.4 mm 3 mps 733 mmHg 93%
05:00 +8°C° 0.1 mm 4 mps 734 mmHg 90%
06:00 +10°C° 0.1 mm 4 mps 734 mmHg 88%
07:00 +10°C° 0.1 mm 4 mps 735 mmHg 85%
08:00 +11°C° 0.2 mm 4 mps 735 mmHg 82%
09:00 +12°C° 0.2 mm 4 mps 735 mmHg 78%
10:00 +13°C° 0.2 mm 5 mps 735 mmHg 74%
11:00 +13°C° 0.2 mm 5 mps 735 mmHg 71%
12:00 +14°C° 0.2 mm 5 mps 735 mmHg 68%
13:00 +14°C° 0.2 mm 5 mps 735 mmHg 65%
14:00 +14°C° 0.1 mm 5 mps 735 mmHg 64%
15:00 +15°C° 0.1 mm 4 mps 735 mmHg 63%
16:00 +15°C° 0.1 mm 4 mps 735 mmHg 62%
17:00 +14°C° 0.2 mm 3 mps 735 mmHg 69%
18:00 +14°C° 0.2 mm 2 mps 735 mmHg 76%
19:00 +12°C° 0.2 mm 2 mps 736 mmHg 83%
20:00 +10°C° 0 mm 2 mps 736 mmHg 85%
21:00 +9°C° 0 mm 2 mps 736 mmHg 87%
22:00 +9°C° 0 mm 2 mps 736 mmHg 90%
23:00 +9°C° 0.1 mm 2 mps 737 mmHg 91%

Day after tomorrow, 19 May, Wednesday

Time Temperature Precipitation Wind Pressure Humidity
00:00 +9°C° 0.1 mm 2 mps 737 mmHg 92%
01:00 +8°C° 0.1 mm 2 mps 737 mmHg 93%
02:00 +8°C° 0 mm 2 mps 737 mmHg 93%
03:00 +8°C° 0 mm 2 mps 737 mmHg 94%
04:00 +9°C° 0 mm 1 mps 737 mmHg 94%
05:00 +9°C° 0 mm 1 mps 737 mmHg 91%
06:00 +10°C° 0 mm 1 mps 738 mmHg 87%
07:00 +10°C° 0 mm 2 mps 738 mmHg 84%
08:00 +10°C° 0.2 mm 2 mps 738 mmHg 81%
09:00 +12°C° 0.2 mm 2 mps 738 mmHg 79%
10:00 +12°C° 0.2 mm 3 mps 738 mmHg 76%
11:00 +12°C° 0.4 mm 3 mps 738 mmHg 75%
12:00 +12°C° 0.4 mm 3 mps 738 mmHg 73%
13:00 +13°C° 0.4 mm 3 mps 738 mmHg 72%
14:00 +12°C° 0.4 mm 3 mps 738 mmHg 73%
15:00 +12°C° 0.4 mm 4 mps 738 mmHg 74%
16:00 +12°C° 0.4 mm 4 mps 738 mmHg 76%
17:00 +11°C° 0.1 mm 4 mps 738 mmHg 79%
18:00 +10°C° 0.1 mm 3 mps 738 mmHg 83%
19:00 +10°C° 0.1 mm 3 mps 738 mmHg 86%
20:00 +9°C° 0 mm 3 mps 738 mmHg 88%
21:00 +8°C° 0 mm 3 mps 738 mmHg 90%
22:00 +8°C° 0 mm 3 mps 739 mmHg 92%
23:00 +8°C° 0 mm 3 mps 739 mmHg 91%

20 May, Thursday

Time Temperature Precipitation Wind Pressure Humidity
00:00 +8°C° 0 mm 3 mps 739 mmHg 90%
01:00 +8°C° 0 mm 3 mps 738 mmHg 89%
02:00 +8°C° 0 mm 3 mps 739 mmHg 89%
03:00 +8°C° 0 mm 3 mps 739 mmHg 90%
04:00 +8°C° 0 mm 3 mps 739 mmHg 90%
05:00 +7°C° 0.2 mm 4 mps 739 mmHg 90%
06:00 +7°C° 0.2 mm 4 mps 739 mmHg 89%
07:00 +7°C° 0.2 mm 4 mps 739 mmHg 89%
08:00 +8°C° 0.7 mm 4 mps 740 mmHg 84%
09:00 +10°C° 0.7 mm 4 mps 740 mmHg 79%
10:00 +11°C° 0.7 mm 4 mps 740 mmHg 74%
11:00 +12°C° 0.1 mm 4 mps 740 mmHg 70%
12:00 +13°C° 0.1 mm 5 mps 740 mmHg 66%
13:00 +14°C° 0.1 mm 5 mps 740 mmHg 62%
14:00 +14°C° 0.5 mm 5 mps 740 mmHg 67%
15:00 +13°C° 0.5 mm 5 mps 740 mmHg 72%
16:00 +13°C° 0.5 mm 5 mps 740 mmHg 77%
17:00 +12°C° 0.6 mm 5 mps 740 mmHg 81%
18:00 +11°C° 0.6 mm 4 mps 740 mmHg 85%
19:00 +10°C° 0.6 mm 4 mps 741 mmHg 89%
20:00 +9°C° 0.2 mm 3 mps 741 mmHg 90%
21:00 +8°C° 0.2 mm 3 mps 742 mmHg 92%
22:00 +8°C° 0.2 mm 3 mps 742 mmHg 93%
23:00 +7°C° 0 mm 3 mps 742 mmHg 94%

21 May, Friday

Time Temperature Precipitation Wind Pressure Humidity
00:00 +7°C° 0 mm 3 mps 742 mmHg 94%
01:00 +6°C° 0 mm 2 mps 743 mmHg 95%
02:00 +6°C° 0 mm 2 mps 743 mmHg 94%
03:00 +5°C° 0 mm 2 mps 743 mmHg 94%
04:00 +6°C° 0 mm 1 mps 743 mmHg 93%
05:00 +6°C° 0 mm 2 mps 743 mmHg 88%
06:00 +8°C° 0 mm 2 mps 743 mmHg 84%
07:00 +9°C° 0 mm 2 mps 743 mmHg 79%
08:00 +10°C° 0.1 mm 2 mps 743 mmHg 73%
09:00 +12°C° 0.1 mm 2 mps 743 mmHg 67%
10:00 +12°C° 0.1 mm 3 mps 743 mmHg 61%
11:00 +14°C° 0 mm 2 mps 742 mmHg 58%
12:00 +14°C° 0 mm 2 mps 742 mmHg 56%
13:00 +15°C° 0 mm 2 mps 742 mmHg 54%
14:00 +15°C° 0 mm 2 mps 741 mmHg 54%
15:00 +16°C° 0 mm 2 mps 741 mmHg 53%
16:00 +16°C° 0 mm 2 mps 740 mmHg 53%
17:00 +15°C° 0 mm 2 mps 740 mmHg 60%
18:00 +14°C° 0 mm 2 mps 740 mmHg 67%
19:00 +13°C° 0 mm 2 mps 740 mmHg 74%
20:00 +12°C° 0 mm 2 mps 739 mmHg 74%
21:00 +10°C° 0 mm 2 mps 739 mmHg 75%
22:00 +9°C° 0 mm 2 mps 739 mmHg 75%
23:00 +9°C° 0 mm 2 mps 739 mmHg 75%

22 May, Saturday

Time Temperature Precipitation Wind Pressure Humidity
00:00 +9°C° 0 mm 2 mps 739 mmHg 75%
01:00 +9°C° 0 mm 2 mps 738 mmHg 75%
02:00 +8°C° 0 mm 2 mps 738 mmHg 75%
03:00 +8°C° 0 mm 2 mps 737 mmHg 76%
04:00 +8°C° 0 mm 3 mps 737 mmHg 77%
05:00 +9°C° 0 mm 3 mps 737 mmHg 73%
06:00 +11°C° 0 mm 3 mps 737 mmHg 68%
07:00 +13°C° 0 mm 3 mps 737 mmHg 64%
08:00 +15°C° 0 mm 4 mps 737 mmHg 60%
09:00 +16°C° 0 mm 5 mps 737 mmHg 56%
10:00 +19°C° 0 mm 5 mps 737 mmHg 52%
11:00 +19°C° 0 mm 5 mps 737 mmHg 52%
12:00 +19°C° 0 mm 5 mps 737 mmHg 53%
13:00 +20°C° 0 mm 5 mps 737 mmHg 53%
14:00 +19°C° 0.1 mm 5 mps 737 mmHg 57%
15:00 +19°C° 0.1 mm 4 mps 737 mmHg 61%
16:00 +18°C° 0.1 mm 4 mps 736 mmHg 65%
17:00 +17°C° 0.6 mm 4 mps 736 mmHg 72%
18:00 +14°C° 0.6 mm 3 mps 736 mmHg 79%
19:00 +13°C° 0.6 mm 3 mps 736 mmHg 86%
20:00 +12°C° 1.5 mm 3 mps 737 mmHg 89%
21:00 +11°C° 1.5 mm 3 mps 737 mmHg 92%
22:00 +12°C° 1.5 mm 2 mps 737 mmHg 96%
23:00 +10°C° 2.5 mm 2 mps 737 mmHg 95%
Show more